Powrót do katalogu

THORAD AGENA D DEB

AktywnyPO
NORAD 42521·DEBRIS·🇺🇸 United States

Wystrzelony Apr 8, 1970 z Vandenberg Space Force Base

Loading…

Następne Przeloty (najbliższe 24 godziny)

TLE

ŚwieżeSource: Space-Track

Epoka: Sep 12, 2026, 03:06 UTC

1 42521U 70025SB  26255.12984907  .00000141  00000-0  18050-3 0  9991
2 42521  99.9395 322.9236 0013466 290.9101  69.0608 13.80677619643683

Śledź THORAD AGENA D DEB w czasie rzeczywistym z AllMySat

Download on the App Store